Погода в Сартане

Украина / Донецкая область     47°10′38″N   37°41′19″E
темп.,
°C
ветер,
м/с
пор.,
м/с
влажн.,
%
обл.,
%
осадки,
мм/ч
давл.,
гПа
погр.,
м
10 мая, пн
пн1000:00+7сз410675 0.0 1023231
03:00+6сз510709 0.0 1024279
06:00+5сз511750 0.0 1024302
09:00+11ссз71050100 0.0 10231564
12:00+13ссз81040100 0.0 10222373
15:00+14ссз71140100 0.0 10202317
18:00+14сз61246100 0.0 10182276
21:00+12сз61248100 0.0 10171592
11 мая, вт
вт1100:00+8зсз81380100 2.6 10141170
03:00+7зсз81489100 6.6 1010828
06:00+8с71292100 0.8 1009739
09:00+8ссв71083100 0.8 1010946
12:00+11ссв786995 0.1 10111328
15:00+10ссв4671100 0.4 10121056
18:00+9ссв3480100 0.1 1013619
21:00+8в2388100 0.1 1014172
12 мая, ср
ср1200:00+7всв359546 0.2 1015113
03:00+8вюв489463 1.4 1014218
06:00+9юв81295100 3.3 1014793
09:00+10ююв81289100 7.1 1015958
12:00+11ююв71188100 1.3 1016953
15:00+11ююв51081100 1.8 1016552
18:00+12юв2584100 0.0 1016137
21:00+12в229175 0.0 101633
13 мая, чт
чт1300:00+10всв229276 0.0 101519
03:00+10всв349396 0.0 101565
06:00+10всв489492 0.0 1015162
09:00+17в687157 0.0 1015489
12:00+21вюв795997 0.0 1014875
15:00+22вюв7957100 0.0 10131004
18:00+21в61170100 0.0 1013539
21:00+17в513874 0.0 1013306
14 мая, пт
пт1400:00+16в412895 0.0 1012259
03:00+15в4109242 0.0 1012195
06:00+15в4109053 0.0 1013222
09:00+20вюв5766100 0.0 1012399
12:00+23юв5660100 0.0 1012587
15:00+25юв455666 0.0 1012703
18:00+25вюв3668100 0.0 1011296
21:00+20вюв358837 0.0 101175